STARLINK-6095 (56101 NORAD) Tracking and Keplerian Element Data

This shows tracking and keplerian element data for the satellite.

Feedback or suggestion? Click here.




ElementValue
Catalog56101
NameSTARLINK-6095
Epoch Orbit652
Epoch Day127.25001157
Epoch Year2023
RAAN37.8722
Inclination43.001
Eccentricity0.0001508
Argument of Perigee272.0088
Mean Anonmoly79.8298
Mean Motion15.28621117
Decay Rate-0.00901586
L11 56101U 23046J 23127.25001157 -.00901586 00000+0 -34611-1 0 9990
L22 56101 43.0010 37.8722 0001508 272.0088 79.8298 15.28621117 6523



Live tracking and technical data element details for STARLINK-6095 (NORAD 56101). STARLINK-6095 can be tracked NOW for your location showing map with azimuth and elevation plus other details from your city location.







IsCatalogInMostPopularTable: catalog: 56101, numindb: 1
Update: records affected: 1



GetName: 56101 STARLINK-6095

Hit Count: updated at: Sun, 04 Jun 2023 23:24:25 GMT